Time,TemperatureF,DewpointF,PressureIn,WindDirection,WindDirectionDegrees,WindSpeedMPH,WindSpeedGustMPH,Humidity,HourlyPrecipIn,Conditions,Clouds,dailyrainin,SoftwareType,DateUTC
2013-11-23 00:04:00,6.5,2.7,30.51,WNW,296,0.0,0.0,84,0.00,CLR,CLR,0.00,WeatherDisplay:10.34,2013-11-23 07:04:00,
2013-11-23 00:09:00,6.6,2.8,30.51,WNW,295,0.0,0.0,84,0.00,CLR,CLR,0.00,WeatherDisplay:10.34,2013-11-23 07:09:00,
2013-11-23 00:14:00,6.7,2.9,30.51,WNW,296,0.0,0.0,84,0.00,CLR,CLR,0.00,WeatherDisplay:10.34,2013-11-23 07:14:00,
2013-11-23 00:19:00,6.8,2.7,30.51,WNW,296,0.0,0.0,83,0.00,CLR,CLR,0.00,WeatherDisplay:10.34,2013-11-23 07:19:00,
2013-11-23 00:24:00,6.7,2.6,30.51,WNW,296,0.0,0.0,83,0.00,CLR,CLR,0.00,WeatherDisplay:10.34,2013-11-23 07:24:00,
2013-11-23 00:29:00,6.6,2.5,30.51,WNW,295,0.0,0.0,83,0.00,CLR,CLR,0.00,WeatherDisplay:10.34,2013-11-23 07:29:00,
2013-11-23 00:34:00,6.5,2.4,30.51,WNW,295,0.0,1.0,83,0.00,CLR,CLR,0.00,WeatherDisplay:10.34,2013-11-23 07:34:00,
2013-11-23 00:39:00,6.3,2.2,30.51,WNW,295,0.0,0.0,83,0.00,CLR,CLR,0.00,WeatherDisplay:10.34,2013-11-23 07:39:00,
2013-11-23 00:44:00,6.2,2.1,30.51,WNW,295,0.0,0.0,83,0.00,CLR,CLR,0.00,WeatherDisplay:10.34,2013-11-23 07:44:00,
2013-11-23 00:49:00,6.0,1.7,30.51,WNW,295,0.0,0.0,82,0.00,CLR,CLR,0.00,WeatherDisplay:10.34,2013-11-23 07:49:00,
2013-11-23 00:54:00,5.8,1.5,30.51,WNW,296,0.0,0.0,82,0.00,CLR,CLR,0.00,WeatherDisplay:10.34,2013-11-23 07:54:00,
2013-11-23 00:59:00,5.6,1.3,30.51,WNW,296,0.0,0.0,82,0.00,CLR,CLR,0.00,WeatherDisplay:10.34,2013-11-23 07:59:00,
2013-11-23 01:04:00,5.5,1.2,30.51,WNW,295,0.0,1.0,82,0.00,CLR,CLR,0.00,WeatherDisplay:10.34,2013-11-23 08:04:00,
2013-11-23 01:09:00,5.2,0.9,30.51,WNW,296,0.0,1.0,82,0.00,CLR,CLR,0.00,WeatherDisplay:10.34,2013-11-23 08:09:00,
2013-11-23 01:14:00,5.0,0.7,30.50,WNW,296,0.0,0.0,82,0.00,CLR,CLR,0.00,WeatherDisplay:10.34,2013-11-23 08:14:00,
2013-11-23 01:19:00,4.9,0.3,30.50,WNW,295,0.0,0.0,81,0.00,CLR,CLR,0.00,WeatherDisplay:10.34,2013-11-23 08:19:00,
2013-11-23 01:24:00,4.7,0.2,30.50,WNW,295,0.0,0.0,81,0.00,CLR,CLR,0.00,WeatherDisplay:10.34,2013-11-23 08:24:00,
2013-11-23 01:29:00,4.6,0.1,30.50,WNW,295,0.0,0.0,81,0.00,CLR,CLR,0.00,WeatherDisplay:10.34,2013-11-23 08:29:00,
2013-11-23 01:34:00,4.4,-0.1,30.50,WNW,295,0.0,0.0,81,0.00,CLR,CLR,0.00,WeatherDisplay:10.34,2013-11-23 08:34:00,
2013-11-23 01:39:00,4.3,-0.2,30.50,WNW,295,0.0,0.0,81,0.00,CLR,CLR,0.00,WeatherDisplay:10.34,2013-11-23 08:39:00,
2013-11-23 01:44:00,4.1,-0.4,30.50,WNW,296,0.0,0.0,81,0.00,CLR,CLR,0.00,WeatherDisplay:10.34,2013-11-23 08:44:00,
2013-11-23 01:49:00,4.0,-0.5,30.50,WNW,296,0.0,0.0,81,0.00,CLR,CLR,0.00,WeatherDisplay:10.34,2013-11-23 08:49:00,
2013-11-23 01:54:00,4.0,-0.5,30.50,WNW,296,0.0,0.0,81,0.00,CLR,CLR,0.00,WeatherDisplay:10.34,2013-11-23 08:54:00,
2013-11-23 01:59:00,4.0,-0.3,30.50,WNW,295,0.0,0.0,82,0.00,CLR,CLR,0.00,WeatherDisplay:10.34,2013-11-23 08:59:00,
2013-11-23 02:04:00,3.9,-0.4,30.50,WNW,296,0.0,0.0,82,0.00,CLR,CLR,0.00,WeatherDisplay:10.34,2013-11-23 09:04:00,
2013-11-23 02:09:00,3.9,-0.4,30.50,WNW,296,0.0,0.0,82,0.00,CLR,CLR,0.00,WeatherDisplay:10.34,2013-11-23 09:09:00,
2013-11-23 02:14:00,3.8,-0.5,30.51,WNW,296,0.0,0.0,82,0.00,CLR,CLR,0.00,WeatherDisplay:10.34,2013-11-23 09:14:00,
2013-11-23 02:19:00,3.7,-0.6,30.51,WNW,296,0.0,0.0,82,0.00,CLR,CLR,0.00,WeatherDisplay:10.34,2013-11-23 09:19:00,
2013-11-23 02:24:00,3.6,-0.7,30.51,WNW,295,0.0,0.0,82,0.00,CLR,CLR,0.00,WeatherDisplay:10.34,2013-11-23 09:24:00,
2013-11-23 02:29:00,3.5,-0.8,30.51,WNW,296,0.0,1.0,82,0.00,CLR,CLR,0.00,WeatherDisplay:10.34,2013-11-23 09:29:00,
2013-11-23 02:34:00,3.4,-0.9,30.51,WNW,296,0.0,0.0,82,0.00,CLR,CLR,0.00,WeatherDisplay:10.34,2013-11-23 09:34:00,
2013-11-23 02:39:00,3.3,-1.0,30.51,WNW,296,0.0,0.0,82,0.00,CLR,CLR,0.00,WeatherDisplay:10.34,2013-11-23 09:39:00,
2013-11-23 02:44:00,3.2,-1.1,30.51,WNW,296,0.0,0.0,82,0.00,CLR,CLR,0.00,WeatherDisplay:10.34,2013-11-23 09:44:00,
2013-11-23 02:49:00,3.1,-1.2,30.51,WNW,296,0.0,0.0,82,0.00,CLR,CLR,0.00,WeatherDisplay:10.34,2013-11-23 09:49:00,
2013-11-23 02:54:00,3.0,-1.3,30.51,WNW,295,0.0,0.0,82,0.00,CLR,CLR,0.00,WeatherDisplay:10.34,2013-11-23 09:54:00,
2013-11-23 02:59:00,2.9,-1.3,30.51,WNW,295,0.0,0.0,82,0.00,CLR,CLR,0.00,WeatherDisplay:10.34,2013-11-23 09:59:00,
2013-11-23 03:04:00,2.8,-1.4,30.51,WNW,296,0.0,0.0,82,0.00,CLR,CLR,0.00,WeatherDisplay:10.34,2013-11-23 10:04:00,
2013-11-23 03:09:00,2.8,-1.4,30.51,WNW,296,0.0,0.0,82,0.00,CLR,CLR,0.00,WeatherDisplay:10.34,2013-11-23 10:09:00,
2013-11-23 03:14:00,2.7,-1.5,30.51,WNW,295,0.0,1.0,82,0.00,CLR,CLR,0.00,WeatherDisplay:10.34,2013-11-23 10:14:00,
2013-11-23 03:19:00,2.7,-1.5,30.51,WNW,296,0.0,0.0,82,0.00,CLR,CLR,0.00,WeatherDisplay:10.34,2013-11-23 10:19:00,
2013-11-23 03:24:00,2.8,-1.4,30.51,WNW,295,0.0,0.0,82,0.00,CLR,CLR,0.00,WeatherDisplay:10.34,2013-11-23 10:24:00,
2013-11-23 03:29:00,2.8,-1.4,30.51,WNW,295,0.0,0.0,82,0.00,CLR,CLR,0.00,WeatherDisplay:10.34,2013-11-23 10:29:00,
2013-11-23 03:34:00,2.8,-1.4,30.51,WNW,296,0.0,0.0,82,0.00,CLR,CLR,0.00,WeatherDisplay:10.34,2013-11-23 10:34:00,
2013-11-23 03:39:00,2.8,-1.4,30.51,WNW,296,0.0,0.0,82,0.00,CLR,CLR,0.00,WeatherDisplay:10.34,2013-11-23 10:39:00,
2013-11-23 03:44:00,2.8,-1.4,30.50,WNW,296,0.0,0.0,82,0.00,CLR,CLR,0.00,WeatherDisplay:10.34,2013-11-23 10:44:00,
2013-11-23 03:49:00,2.8,-1.4,30.50,WNW,296,0.0,0.0,82,0.00,CLR,CLR,0.00,WeatherDisplay:10.34,2013-11-23 10:49:00,
2013-11-23 03:54:00,2.8,-1.2,30.50,WNW,296,0.0,0.0,83,0.00,CLR,CLR,0.00,WeatherDisplay:10.34,2013-11-23 10:54:00,
2013-11-23 03:59:00,2.8,-1.2,30.50,WNW,296,0.0,1.0,83,0.00,CLR,CLR,0.00,WeatherDisplay:10.34,2013-11-23 10:59:00,
2013-11-23 04:04:00,2.9,-1.1,30.50,WNW,296,0.0,1.0,83,0.00,CLR,CLR,0.00,WeatherDisplay:10.34,2013-11-23 11:04:00,
2013-11-23 04:09:00,3.4,-0.3,30.50,WNW,296,0.0,0.0,84,0.00,CLR,CLR,0.00,WeatherDisplay:10.34,2013-11-23 11:09:00,
2013-11-23 04:14:00,3.7,-0.1,30.52,WNW,296,0.0,0.0,84,0.00,CLR,CLR,0.00,WeatherDisplay:10.34,2013-11-23 11:14:00,
2013-11-23 04:19:00,3.8,0.0,30.51,WNW,296,0.0,0.0,84,0.00,CLR,CLR,0.00,WeatherDisplay:10.34,2013-11-23 11:19:00,
2013-11-23 04:24:00,3.8,0.0,30.51,WNW,296,0.0,0.0,84,0.00,CLR,CLR,0.00,WeatherDisplay:10.34,2013-11-23 11:24:00,
2013-11-23 04:29:00,3.8,0.0,30.51,WNW,296,0.0,0.0,84,0.00,CLR,CLR,0.00,WeatherDisplay:10.34,2013-11-23 11:29:00,
2013-11-23 04:34:00,3.7,-0.1,30.51,WNW,295,0.0,0.0,84,0.00,CLR,CLR,0.00,WeatherDisplay:10.34,2013-11-23 11:34:00,
2013-11-23 04:39:00,3.7,-0.1,30.51,WNW,295,0.0,0.0,84,0.00,CLR,CLR,0.00,WeatherDisplay:10.34,2013-11-23 11:39:00,
2013-11-23 04:44:00,3.7,-0.1,30.51,WNW,295,0.0,0.0,84,0.00,CLR,CLR,0.00,WeatherDisplay:10.34,2013-11-23 11:44:00,
2013-11-23 04:49:00,3.6,-0.2,30.51,WNW,296,0.0,0.0,84,0.00,CLR,CLR,0.00,WeatherDisplay:10.34,2013-11-23 11:49:00,
2013-11-23 04:54:00,3.6,-0.2,30.51,WNW,296,0.0,0.0,84,0.00,CLR,CLR,0.00,WeatherDisplay:10.34,2013-11-23 11:54:00,
2013-11-23 04:59:00,3.5,-0.2,30.51,WNW,296,0.0,0.0,84,0.00,CLR,CLR,0.00,WeatherDisplay:10.34,2013-11-23 11:59:00,
2013-11-23 05:04:00,3.4,-0.3,30.51,WNW,296,0.0,0.0,84,0.00,CLR,CLR,0.00,WeatherDisplay:10.34,2013-11-23 12:04:00,
2013-11-23 05:09:00,3.3,-0.4,30.51,WNW,296,0.0,0.0,84,0.00,CLR,CLR,0.00,WeatherDisplay:10.34,2013-11-23 12:09:00,
2013-11-23 05:14:00,3.3,-0.4,30.51,WNW,295,0.0,0.0,84,0.00,CLR,CLR,0.00,WeatherDisplay:10.34,2013-11-23 12:14:00,
2013-11-23 05:19:00,3.3,-0.4,30.51,WNW,295,0.0,0.0,84,0.00,CLR,CLR,0.00,WeatherDisplay:10.34,2013-11-23 12:19:00,
2013-11-23 05:24:00,3.2,-0.8,30.51,WNW,295,0.0,0.0,83,0.00,CLR,CLR,0.00,WeatherDisplay:10.34,2013-11-23 12:24:00,
2013-11-23 05:29:00,3.2,-0.8,30.51,WNW,295,0.0,0.0,83,0.00,CLR,CLR,0.00,WeatherDisplay:10.34,2013-11-23 12:29:00,
2013-11-23 05:34:00,3.1,-0.9,30.51,WNW,295,0.0,0.0,83,0.00,CLR,CLR,0.00,WeatherDisplay:10.34,2013-11-23 12:34:00,
2013-11-23 05:39:00,3.0,-1.0,30.51,WNW,295,0.0,0.0,83,0.00,CLR,CLR,0.00,WeatherDisplay:10.34,2013-11-23 12:39:00,
2013-11-23 05:44:00,2.9,-0.8,30.51,WNW,296,0.0,0.0,84,0.00,CLR,CLR,0.00,WeatherDisplay:10.34,2013-11-23 12:44:00,
2013-11-23 05:49:00,2.9,-0.8,30.51,WNW,296,0.0,0.0,84,0.00,CLR,CLR,0.00,WeatherDisplay:10.34,2013-11-23 12:49:00,
2013-11-23 05:54:00,2.9,-0.8,30.50,WNW,296,0.0,0.0,84,0.00,CLR,CLR,0.00,WeatherDisplay:10.34,2013-11-23 12:54:00,
2013-11-23 05:59:00,2.9,-0.8,30.50,WNW,296,0.0,0.0,84,0.00,CLR,CLR,0.00,WeatherDisplay:10.34,2013-11-23 12:59:00,
2013-11-23 06:04:00,2.9,-0.8,30.50,WNW,296,0.0,0.0,84,0.00,CLR,CLR,0.00,WeatherDisplay:10.34,2013-11-23 13:04:00,
2013-11-23 06:09:00,2.9,-0.8,30.50,WNW,295,0.0,0.0,84,0.00,CLR,CLR,0.00,WeatherDisplay:10.34,2013-11-23 13:09:00,
2013-11-23 06:14:00,2.8,-0.9,30.51,WNW,296,0.0,0.0,84,0.00,CLR,CLR,0.00,WeatherDisplay:10.34,2013-11-23 13:14:00,
2013-11-23 06:19:00,2.8,-1.2,30.51,WNW,296,0.0,0.0,83,0.00,CLR,CLR,0.00,WeatherDisplay:10.34,2013-11-23 13:19:00,
2013-11-23 06:24:00,2.7,-1.3,30.51,WNW,296,0.0,0.0,83,0.00,CLR,CLR,0.00,WeatherDisplay:10.34,2013-11-23 13:24:00,
2013-11-23 06:29:00,2.6,-1.4,30.51,WNW,296,0.0,0.0,83,0.00,CLR,CLR,0.00,WeatherDisplay:10.34,2013-11-23 13:29:00,
2013-11-23 06:34:00,2.4,-1.6,30.51,WNW,296,0.0,0.0,83,0.00,CLR,CLR,0.00,WeatherDisplay:10.34,2013-11-23 13:34:00,
2013-11-23 06:39:00,2.3,-1.7,30.51,WNW,295,0.0,0.0,83,0.00,CLR,CLR,0.00,WeatherDisplay:10.34,2013-11-23 13:39:00,
2013-11-23 06:44:00,2.2,-1.8,30.51,WNW,295,0.0,0.0,83,0.00,CLR,CLR,0.00,WeatherDisplay:10.34,2013-11-23 13:44:00,
2013-11-23 06:49:00,2.2,-1.8,30.51,WNW,295,0.0,0.0,83,0.00,CLR,CLR,0.00,WeatherDisplay:10.34,2013-11-23 13:49:00,
2013-11-23 06:54:00,2.1,-1.9,30.51,WNW,295,0.0,0.0,83,0.00,CLR,CLR,0.00,WeatherDisplay:10.34,2013-11-23 13:54:00,
2013-11-23 06:59:00,2.0,-2.0,30.51,WNW,295,0.0,0.0,83,0.00,CLR,CLR,0.00,WeatherDisplay:10.34,2013-11-23 13:59:00,
2013-11-23 07:04:00,1.9,-2.1,30.51,WNW,296,0.0,0.0,83,0.00,OVC,OVC,0.00,WeatherDisplay:10.34,2013-11-23 14:04:00,
2013-11-23 07:09:00,1.9,-2.1,30.51,WNW,295,0.0,0.0,83,0.00,OVC,OVC,0.00,WeatherDisplay:10.34,2013-11-23 14:09:00,
2013-11-23 07:14:00,1.7,-2.5,30.50,WNW,295,0.0,0.0,82,0.00,OVC,OVC,0.00,WeatherDisplay:10.34,2013-11-23 14:14:00,
2013-11-23 07:19:00,1.5,-2.7,30.50,WNW,295,0.0,0.0,82,0.00,OVC,OVC,0.00,WeatherDisplay:10.34,2013-11-23 14:19:00,
2013-11-23 07:24:00,1.5,-2.7,30.50,WNW,295,0.0,0.0,82,0.00,OVC,OVC,0.00,WeatherDisplay:10.34,2013-11-23 14:24:00,
2013-11-23 07:29:00,1.4,-2.8,30.50,WNW,296,0.0,0.0,82,0.00,OVC,OVC,0.00,WeatherDisplay:10.34,2013-11-23 14:29:00,
2013-11-23 07:34:00,1.4,-2.8,30.50,WNW,296,0.0,0.0,82,0.00,OVC,OVC,0.00,WeatherDisplay:10.34,2013-11-23 14:34:00,
2013-11-23 07:39:00,1.4,-2.8,30.50,WNW,296,0.0,0.0,82,0.00,OVC,OVC,0.00,WeatherDisplay:10.34,2013-11-23 14:39:00,
2013-11-23 07:44:00,1.5,-2.5,30.50,WNW,296,0.0,0.0,83,0.00,OVC,OVC,0.00,WeatherDisplay:10.34,2013-11-23 14:44:00,
2013-11-23 07:49:00,1.6,-2.4,30.50,WNW,296,0.0,0.0,83,0.00,OVC,OVC,0.00,WeatherDisplay:10.34,2013-11-23 14:49:00,
2013-11-23 07:54:00,1.8,-2.2,30.51,WNW,295,0.0,0.0,83,0.00,OVC,OVC,0.00,WeatherDisplay:10.34,2013-11-23 14:54:00,
2013-11-23 07:59:00,2.3,-1.4,30.50,WNW,296,0.0,0.0,84,0.00,OVC,OVC,0.00,WeatherDisplay:10.34,2013-11-23 14:59:00,
2013-11-23 08:04:00,2.8,-0.9,30.50,WNW,295,0.0,0.0,84,0.00,CLR,CLR,0.00,WeatherDisplay:10.34,2013-11-23 15:04:00,
2013-11-23 08:09:00,3.5,0.0,30.50,WNW,296,0.0,0.0,85,0.00,CLR,CLR,0.00,WeatherDisplay:10.34,2013-11-23 15:09:00,
2013-11-23 08:14:00,4.5,1.0,30.50,WNW,296,0.0,0.0,85,0.00,CLR,CLR,0.00,WeatherDisplay:10.34,2013-11-23 15:14:00,
2013-11-23 08:19:00,5.5,2.2,30.50,WNW,296,0.0,0.0,86,0.00,CLR,CLR,0.00,WeatherDisplay:10.34,2013-11-23 15:19:00,
2013-11-23 08:24:00,6.3,2.8,30.50,WNW,296,1.0,2.0,85,0.00,CLR,CLR,0.00,WeatherDisplay:10.34,2013-11-23 15:24:00,
2013-11-23 08:29:00,7.0,3.4,30.50,WNW,295,1.0,2.0,85,0.00,CLR,CLR,0.00,WeatherDisplay:10.34,2013-11-23 15:29:00,
2013-11-23 08:34:00,7.6,4.0,30.50,WNW,295,1.0,1.0,85,0.00,CLR,CLR,0.00,WeatherDisplay:10.34,2013-11-23 15:34:00,
2013-11-23 08:39:00,8.1,4.5,30.50,WNW,295,2.0,2.0,85,0.00,CLR,CLR,0.00,WeatherDisplay:10.34,2013-11-23 15:39:00,
2013-11-23 08:44:00,8.6,5.0,30.50,WNW,296,2.0,2.0,85,0.00,CLR,CLR,0.00,WeatherDisplay:10.34,2013-11-23 15:44:00,
2013-11-23 08:49:00,9.1,5.5,30.50,WNW,296,0.0,1.0,85,0.00,CLR,CLR,0.00,WeatherDisplay:10.34,2013-11-23 15:49:00,
2013-11-23 08:54:00,9.6,5.7,30.50,WNW,296,4.0,4.0,84,0.00,CLR,CLR,0.00,WeatherDisplay:10.34,2013-11-23 15:54:00,
2013-11-23 08:59:00,9.9,6.0,30.50,NNW,338,3.0,3.0,84,0.00,CLR,CLR,0.00,WeatherDisplay:10.34,2013-11-23 15:59:00,
2013-11-23 09:04:00,10.4,6.3,30.50,NNW,345,4.0,4.0,83,0.00,CLR,CLR,0.00,WeatherDisplay:10.34,2013-11-23 16:04:00,
2013-11-23 09:09:00,10.7,6.6,30.49,NNW,348,2.0,2.0,83,0.00,CLR,CLR,0.00,WeatherDisplay:10.34,2013-11-23 16:09:00,
2013-11-23 09:14:00,11.2,7.0,30.49,NNW,337,2.0,2.0,83,0.00,CLR,CLR,0.00,WeatherDisplay:10.34,2013-11-23 16:14:00,
2013-11-23 09:19:00,11.6,7.2,30.49,NNW,337,1.0,2.0,82,0.00,CLR,CLR,0.00,WeatherDisplay:10.34,2013-11-23 16:19:00,
2013-11-23 09:24:00,12.1,7.4,30.49,NNW,338,2.0,3.0,81,0.00,CLR,CLR,0.00,WeatherDisplay:10.34,2013-11-23 16:24:00,
2013-11-23 09:29:00,12.4,7.4,30.48,NNW,344,2.0,3.0,80,0.00,CLR,CLR,0.00,WeatherDisplay:10.34,2013-11-23 16:29:00,
2013-11-23 09:34:00,12.7,7.7,30.50,NNW,343,2.0,2.0,80,0.00,CLR,CLR,0.00,WeatherDisplay:10.34,2013-11-23 16:34:00,
2013-11-23 09:39:00,13.0,7.7,30.50,NNE,33,3.0,3.0,79,0.00,CLR,CLR,0.00,WeatherDisplay:10.34,2013-11-23 16:39:00,
2013-11-23 09:44:00,13.2,7.6,30.49,North,5,2.0,3.0,78,0.00,CLR,CLR,0.00,WeatherDisplay:10.34,2013-11-23 16:44:00,
2013-11-23 09:49:00,13.5,7.9,30.49,NNW,344,2.0,2.0,78,0.00,CLR,CLR,0.00,WeatherDisplay:10.34,2013-11-23 16:49:00,
2013-11-23 09:54:00,13.7,7.8,30.49,NNW,347,4.0,4.0,77,0.00,CLR,CLR,0.00,WeatherDisplay:10.34,2013-11-23 16:54:00,
2013-11-23 09:59:00,13.8,7.9,30.49,NNW,344,3.0,3.0,77,0.00,CLR,CLR,0.00,WeatherDisplay:10.34,2013-11-23 16:59:00,
2013-11-23 10:04:00,14.1,8.2,30.49,NNW,338,2.0,2.0,77,0.00,CLR,CLR,0.00,WeatherDisplay:10.34,2013-11-23 17:04:00,
2013-11-23 10:09:00,14.4,8.5,30.49,NE,47,3.0,7.0,77,0.00,CLR,CLR,0.00,WeatherDisplay:10.34,2013-11-23 17:09:00,
2013-11-23 10:14:00,14.9,8.7,30.48,NNE,24,4.0,5.0,76,0.00,CLR,CLR,0.00,WeatherDisplay:10.34,2013-11-23 17:14:00,
2013-11-23 10:19:00,15.4,9.2,30.48,NNE,26,2.0,2.0,76,0.00,CLR,CLR,0.00,WeatherDisplay:10.34,2013-11-23 17:19:00,
2013-11-23 10:24:00,15.7,9.5,30.48,North,355,1.0,3.0,76,0.00,CLR,CLR,0.00,WeatherDisplay:10.34,2013-11-23 17:24:00,
2013-11-23 10:29:00,15.7,9.2,30.48,North,10,4.0,5.0,75,0.00,CLR,CLR,0.00,WeatherDisplay:10.34,2013-11-23 17:29:00,
2013-11-23 10:34:00,16.0,9.5,30.47,NE,52,6.0,7.0,75,0.00,CLR,CLR,0.00,WeatherDisplay:10.34,2013-11-23 17:34:00,
2013-11-23 10:39:00,16.4,9.9,30.47,North,9,2.0,2.0,75,0.00,CLR,CLR,0.00,WeatherDisplay:10.34,2013-11-23 17:39:00,
2013-11-23 10:44:00,16.6,9.8,30.46,NNE,22,4.0,4.0,74,0.00,CLR,CLR,0.00,WeatherDisplay:10.34,2013-11-23 17:44:00,
2013-11-23 10:49:00,16.8,9.6,30.46,North,350,7.0,7.0,73,0.00,CLR,CLR,0.00,WeatherDisplay:10.34,2013-11-23 17:49:00,
2013-11-23 10:54:00,16.6,9.4,30.46,NNW,348,4.0,4.0,73,0.00,CLR,CLR,0.00,WeatherDisplay:10.34,2013-11-23 17:54:00,
2013-11-23 10:59:00,16.8,9.6,30.46,NNW,348,0.0,1.0,73,0.00,CLR,CLR,0.00,WeatherDisplay:10.34,2013-11-23 17:59:00,
2013-11-23 11:04:00,17.9,11.0,30.46,NE,52,0.0,2.0,74,0.00,CLR,CLR,0.00,WeatherDisplay:10.34,2013-11-23 18:04:00,
2013-11-23 11:09:00,18.1,10.3,30.46,North,360,3.0,3.0,71,0.00,CLR,CLR,0.00,WeatherDisplay:10.34,2013-11-23 18:09:00,
2013-11-23 11:14:00,18.6,10.8,30.45,NE,52,0.0,1.0,71,0.00,CLR,CLR,0.00,WeatherDisplay:10.34,2013-11-23 18:14:00,
2013-11-23 11:19:00,19.3,11.1,30.45,NW,317,1.0,1.0,70,0.00,CLR,CLR,0.00,WeatherDisplay:10.34,2013-11-23 18:19:00,
2013-11-23 11:24:00,19.8,11.3,30.45,NE,47,3.0,5.0,69,0.00,CLR,CLR,0.00,WeatherDisplay:10.34,2013-11-23 18:24:00,
2013-11-23 11:29:00,20.3,11.4,30.45,NE,47,0.0,0.0,68,0.00,CLR,CLR,0.00,WeatherDisplay:10.34,2013-11-23 18:29:00,
2013-11-23 11:34:00,20.4,11.2,30.44,ENE,74,4.0,4.0,67,0.00,CLR,CLR,0.00,WeatherDisplay:10.34,2013-11-23 18:34:00,
2013-11-23 11:39:00,20.8,11.2,30.44,ENE,61,2.0,3.0,66,0.00,CLR,CLR,0.00,WeatherDisplay:10.34,2013-11-23 18:39:00,
2013-11-23 11:44:00,21.2,11.6,30.43,East,86,4.0,5.0,66,0.00,CLR,CLR,0.00,WeatherDisplay:10.34,2013-11-23 18:44:00,
2013-11-23 11:49:00,21.4,11.5,30.43,NE,40,4.0,4.0,65,0.00,CLR,CLR,0.00,WeatherDisplay:10.34,2013-11-23 18:49:00,
2013-11-23 11:54:00,21.5,11.9,30.43,ENE,77,5.0,8.0,66,0.00,CLR,CLR,0.00,WeatherDisplay:10.34,2013-11-23 18:54:00,
2013-11-23 11:59:00,21.5,11.5,30.43,East,80,9.0,9.0,65,0.00,CLR,CLR,0.00,WeatherDisplay:10.34,2013-11-23 18:59:00,
2013-11-23 12:04:00,21.6,12.3,30.43,ENE,63,5.0,5.0,67,0.00,CLR,CLR,0.00,WeatherDisplay:10.34,2013-11-23 19:04:00,
2013-11-23 12:09:00,22.0,12.7,30.43,East,90,4.0,7.0,67,0.00,CLR,CLR,0.00,WeatherDisplay:10.34,2013-11-23 19:09:00,
2013-11-23 12:14:00,22.4,13.4,30.42,NNE,31,5.0,7.0,68,0.00,CLR,CLR,0.00,WeatherDisplay:10.34,2013-11-23 19:14:00,
2013-11-23 12:19:00,22.6,12.9,30.42,NE,46,4.0,5.0,66,0.00,CLR,CLR,0.00,WeatherDisplay:10.34,2013-11-23 19:19:00,
2013-11-23 12:24:00,22.6,12.9,30.41,NE,49,2.0,2.0,66,0.00,CLR,CLR,0.00,WeatherDisplay:10.34,2013-11-23 19:24:00,
2013-11-23 12:29:00,22.9,13.2,30.41,East,88,7.0,8.0,66,0.00,CLR,CLR,0.00,WeatherDisplay:10.34,2013-11-23 19:29:00,
2013-11-23 12:34:00,22.8,12.8,30.41,ESE,111,4.0,5.0,65,0.00,CLR,CLR,0.00,WeatherDisplay:10.34,2013-11-23 19:34:00,
2013-11-23 12:39:00,23.0,13.7,30.41,ENE,62,9.0,9.0,67,0.00,CLR,CLR,0.00,WeatherDisplay:10.34,2013-11-23 19:39:00,
2013-11-23 12:44:00,23.1,13.4,30.41,East,80,1.0,1.0,66,0.00,CLR,CLR,0.00,WeatherDisplay:10.34,2013-11-23 19:44:00,
2013-11-23 12:49:00,23.5,14.1,30.41,East,88,6.0,9.0,67,0.00,CLR,CLR,0.00,WeatherDisplay:10.34,2013-11-23 19:49:00,
2013-11-23 12:54:00,23.9,14.2,30.40,East,80,5.0,7.0,66,0.00,CLR,CLR,0.00,WeatherDisplay:10.34,2013-11-23 19:54:00,
2013-11-23 12:59:00,24.4,14.3,30.40,NE,51,2.0,3.0,65,0.00,CLR,CLR,0.00,WeatherDisplay:10.34,2013-11-23 19:59:00,
2013-11-23 13:04:00,25.0,15.2,30.39,ENE,71,4.0,5.0,66,0.00,CLR,CLR,0.00,WeatherDisplay:10.34,2013-11-23 20:04:00,
2013-11-23 13:09:00,25.3,15.2,30.39,NE,49,4.0,4.0,65,0.00,CLR,CLR,0.00,WeatherDisplay:10.34,2013-11-23 20:09:00,
2013-11-23 13:14:00,25.4,14.5,30.39,East,95,3.0,3.0,63,0.00,CLR,CLR,0.00,WeatherDisplay:10.34,2013-11-23 20:14:00,
2013-11-23 13:19:00,25.6,15.1,30.39,NE,37,4.0,5.0,64,0.00,CLR,CLR,0.00,WeatherDisplay:10.34,2013-11-23 20:19:00,
2013-11-23 13:24:00,25.6,14.4,30.39,ENE,57,4.0,7.0,62,0.00,CLR,CLR,0.00,WeatherDisplay:10.34,2013-11-23 20:24:00,
2013-11-23 13:29:00,25.8,15.6,30.39,ESE,102,4.0,5.0,65,0.00,CLR,CLR,0.00,WeatherDisplay:10.34,2013-11-23 20:29:00,
2013-11-23 13:34:00,26.2,15.7,30.38,NE,44,2.0,5.0,64,0.00,CLR,CLR,0.00,WeatherDisplay:10.34,2013-11-23 20:34:00,
2013-11-23 13:39:00,26.4,14.8,30.38,NE,53,7.0,7.0,61,0.00,CLR,CLR,0.00,WeatherDisplay:10.34,2013-11-23 20:39:00,
2013-11-23 13:44:00,26.3,14.3,30.37,East,90,6.0,9.0,60,0.00,CLR,CLR,0.00,WeatherDisplay:10.34,2013-11-23 20:44:00,
2013-11-23 13:49:00,26.1,14.1,30.37,ENE,78,4.0,5.0,60,0.00,CLR,CLR,0.00,WeatherDisplay:10.34,2013-11-23 20:49:00,
2013-11-23 13:54:00,26.2,14.9,30.36,East,98,3.0,3.0,62,0.00,CLR,CLR,0.00,WeatherDisplay:10.34,2013-11-23 20:54:00,
2013-11-23 13:59:00,26.4,15.1,30.36,ENE,69,3.0,3.0,62,0.00,CLR,CLR,0.00,WeatherDisplay:10.34,2013-11-23 20:59:00,
2013-11-23 14:04:00,26.3,14.7,30.37,East,89,2.0,2.0,61,0.00,CLR,CLR,0.00,WeatherDisplay:10.34,2013-11-23 21:04:00,
2013-11-23 14:09:00,26.4,14.8,30.37,East,86,4.0,4.0,61,0.00,CLR,CLR,0.00,WeatherDisplay:10.34,2013-11-23 21:09:00,
2013-11-23 14:14:00,26.2,14.6,30.37,ENE,61,3.0,5.0,61,0.00,CLR,CLR,0.00,WeatherDisplay:10.34,2013-11-23 21:14:00,
2013-11-23 14:19:00,26.2,14.6,30.36,East,87,2.0,5.0,61,0.00,CLR,CLR,0.00,WeatherDisplay:10.34,2013-11-23 21:19:00,
2013-11-23 14:24:00,26.2,14.9,30.36,NNE,22,5.0,5.0,62,0.00,CLR,CLR,0.00,WeatherDisplay:10.34,2013-11-23 21:24:00,
2013-11-23 14:29:00,26.3,14.7,30.35,ENE,69,4.0,5.0,61,0.00,CLR,CLR,0.00,WeatherDisplay:10.34,2013-11-23 21:29:00,
2013-11-23 14:34:00,26.4,15.1,30.35,ENE,75,4.0,4.0,62,0.00,CLR,CLR,0.00,WeatherDisplay:10.34,2013-11-23 21:34:00,
2013-11-23 14:39:00,26.6,15.3,30.34,NE,46,3.0,5.0,62,0.00,CLR,CLR,0.00,WeatherDisplay:10.34,2013-11-23 21:39:00,
2013-11-23 14:44:00,26.6,15.3,30.34,ENE,59,5.0,5.0,62,0.00,CLR,CLR,0.00,WeatherDisplay:10.34,2013-11-23 21:44:00,
2013-11-23 14:49:00,26.7,15.4,30.34,ENE,78,3.0,3.0,62,0.00,CLR,CLR,0.00,WeatherDisplay:10.34,2013-11-23 21:49:00,
2013-11-23 14:54:00,26.7,15.0,30.34,NE,42,3.0,9.0,61,0.00,CLR,CLR,0.00,WeatherDisplay:10.34,2013-11-23 21:54:00,
2013-11-23 14:59:00,26.7,15.4,30.34,ENE,76,4.0,5.0,62,0.00,CLR,CLR,0.00,WeatherDisplay:10.34,2013-11-23 21:59:00,
2013-11-23 15:04:00,26.6,14.9,30.34,ENE,72,3.0,8.0,61,0.00,CLR,CLR,0.00,WeatherDisplay:10.34,2013-11-23 22:04:00,
2013-11-23 15:09:00,26.6,15.3,30.34,ENE,78,4.0,4.0,62,0.00,CLR,CLR,0.00,WeatherDisplay:10.34,2013-11-23 22:09:00,
2013-11-23 15:14:00,26.5,14.9,30.33,East,80,4.0,4.0,61,0.00,CLR,CLR,0.00,WeatherDisplay:10.34,2013-11-23 22:14:00,
2013-11-23 15:19:00,26.2,14.6,30.33,East,88,4.0,4.0,61,0.00,CLR,CLR,0.00,WeatherDisplay:10.34,2013-11-23 22:19:00,
2013-11-23 15:24:00,26.1,14.8,30.33,ENE,71,4.0,4.0,62,0.00,CLR,CLR,0.00,WeatherDisplay:10.34,2013-11-23 22:24:00,
2013-11-23 15:29:00,25.8,14.2,30.33,East,86,4.0,7.0,61,0.00,CLR,CLR,0.00,WeatherDisplay:10.34,2013-11-23 22:29:00,
2013-11-23 15:34:00,25.8,14.6,30.32,East,86,1.0,2.0,62,0.00,CLR,CLR,0.00,WeatherDisplay:10.34,2013-11-23 22:34:00,
2013-11-23 15:39:00,25.8,14.6,30.32,NE,53,2.0,2.0,62,0.00,CLR,CLR,0.00,WeatherDisplay:10.34,2013-11-23 22:39:00,
2013-11-23 15:44:00,25.8,14.6,30.32,ENE,57,1.0,2.0,62,0.00,CLR,CLR,0.00,WeatherDisplay:10.34,2013-11-23 22:44:00,
2013-11-23 15:49:00,25.9,14.7,30.32,NE,55,2.0,5.0,62,0.00,CLR,CLR,0.00,WeatherDisplay:10.34,2013-11-23 22:49:00,
2013-11-23 15:54:00,25.6,14.0,30.32,East,86,2.0,2.0,61,0.00,CLR,CLR,0.00,WeatherDisplay:10.34,2013-11-23 22:54:00,
2013-11-23 15:59:00,25.5,14.3,30.31,East,90,0.0,1.0,62,0.00,CLR,CLR,0.00,WeatherDisplay:10.34,2013-11-23 22:59:00,
2013-11-23 16:04:00,25.3,14.1,30.31,NE,40,2.0,5.0,62,0.00,FEW,FEW,0.00,WeatherDisplay:10.34,2013-11-23 23:04:00,
2013-11-23 16:09:00,25.3,14.1,30.31,NE,36,3.0,3.0,62,0.00,FEW,FEW,0.00,WeatherDisplay:10.34,2013-11-23 23:09:00,
2013-11-23 16:14:00,24.9,13.7,30.30,NNE,17,1.0,2.0,62,0.00,SCT,SCT,0.00,WeatherDisplay:10.34,2013-11-23 23:14:00,
2013-11-23 16:19:00,24.4,13.2,30.30,North,355,4.0,5.0,62,0.00,SCT,SCT,0.00,WeatherDisplay:10.34,2013-11-23 23:19:00,
2013-11-23 16:24:00,23.8,13.0,30.29,North,5,3.0,3.0,63,0.00,BKN,BKN,0.00,WeatherDisplay:10.34,2013-11-23 23:24:00,
2013-11-23 16:29:00,23.3,12.6,30.29,NNW,346,1.0,2.0,63,0.00,OVC,OVC,0.00,WeatherDisplay:10.34,2013-11-23 23:29:00,
2013-11-23 16:34:00,22.5,12.1,30.29,NNW,334,3.0,3.0,64,0.00,OVC,OVC,0.00,WeatherDisplay:10.34,2013-11-23 23:34:00,
2013-11-23 16:39:00,21.9,11.9,30.29,NNW,334,2.0,2.0,65,0.00,OVC,OVC,0.00,WeatherDisplay:10.34,2013-11-23 23:39:00,
2013-11-23 16:44:00,20.8,11.2,30.29,NNW,334,0.0,2.0,66,0.00,OVC,OVC,0.00,WeatherDisplay:10.34,2013-11-23 23:44:00,
2013-11-23 16:49:00,20.0,11.1,30.29,NNW,336,3.0,3.0,68,0.00,OVC,OVC,0.00,WeatherDisplay:10.34,2013-11-23 23:49:00,
2013-11-23 16:54:00,19.7,11.2,30.29,NNW,336,2.0,2.0,69,0.00,OVC,OVC,0.00,WeatherDisplay:10.34,2013-11-23 23:54:00,
2013-11-23 16:59:00,19.3,11.1,30.29,NNW,336,2.0,2.0,70,0.00,OVC,OVC,0.00,WeatherDisplay:10.34,2013-11-23 23:59:00,
2013-11-23 17:04:00,18.9,11.0,30.29,NNW,336,2.0,2.0,71,0.00,CLR,CLR,0.00,WeatherDisplay:10.34,2013-11-24 00:04:00,
2013-11-23 17:09:00,18.6,10.8,30.29,NNW,336,0.0,0.0,71,0.00,CLR,CLR,0.00,WeatherDisplay:10.34,2013-11-24 00:09:00,
2013-11-23 17:14:00,18.4,10.9,30.28,NNW,336,0.0,0.0,72,0.00,CLR,CLR,0.00,WeatherDisplay:10.34,2013-11-24 00:14:00,
2013-11-23 17:19:00,18.1,10.9,30.28,NNW,336,1.0,1.0,73,0.00,CLR,CLR,0.00,WeatherDisplay:10.34,2013-11-24 00:19:00,
2013-11-23 17:24:00,17.9,10.7,30.28,NNW,336,0.0,0.0,73,0.00,CLR,CLR,0.00,WeatherDisplay:10.34,2013-11-24 00:24:00,
2013-11-23 17:29:00,17.8,10.6,30.28,NNW,336,0.0,0.0,73,0.00,CLR,CLR,0.00,WeatherDisplay:10.34,2013-11-24 00:29:00,
2013-11-23 17:34:00,17.4,10.2,30.28,NNW,336,0.0,0.0,73,0.00,CLR,CLR,0.00,WeatherDisplay:10.34,2013-11-24 00:34:00,
2013-11-23 17:39:00,17.2,10.0,30.28,NNW,336,1.0,1.0,73,0.00,CLR,CLR,0.00,WeatherDisplay:10.34,2013-11-24 00:39:00,
2013-11-23 17:44:00,17.0,9.8,30.27,NNW,336,0.0,0.0,73,0.00,CLR,CLR,0.00,WeatherDisplay:10.34,2013-11-24 00:44:00,
2013-11-23 17:49:00,16.7,9.5,30.27,NNW,336,0.0,1.0,73,0.00,CLR,CLR,0.00,WeatherDisplay:10.34,2013-11-24 00:49:00,
2013-11-23 17:54:00,16.1,9.0,30.27,WNW,294,0.0,0.0,73,0.00,CLR,CLR,0.00,WeatherDisplay:10.34,2013-11-24 00:54:00,
2013-11-23 17:59:00,15.8,8.7,30.27,WNW,294,0.0,1.0,73,0.00,CLR,CLR,0.00,WeatherDisplay:10.34,2013-11-24 00:59:00,
2013-11-23 18:04:00,15.4,8.6,30.27,WNW,294,0.0,1.0,74,0.00,CLR,CLR,0.00,WeatherDisplay:10.34,2013-11-24 01:04:00,
2013-11-23 18:09:00,15.2,8.4,30.27,WNW,294,0.0,0.0,74,0.00,CLR,CLR,0.00,WeatherDisplay:10.34,2013-11-24 01:09:00,
2013-11-23 18:14:00,15.0,8.2,30.27,WNW,295,0.0,0.0,74,0.00,CLR,CLR,0.00,WeatherDisplay:10.34,2013-11-24 01:14:00,
2013-11-23 18:19:00,14.9,8.1,30.27,WNW,296,1.0,2.0,74,0.00,CLR,CLR,0.00,WeatherDisplay:10.34,2013-11-24 01:19:00,
2013-11-23 18:24:00,14.7,7.9,30.26,WNW,298,0.0,1.0,74,0.00,CLR,CLR,0.00,WeatherDisplay:10.34,2013-11-24 01:24:00,
2013-11-23 18:29:00,14.6,7.8,30.26,NNE,28,0.0,1.0,74,0.00,CLR,CLR,0.00,WeatherDisplay:10.34,2013-11-24 01:29:00,
2013-11-23 18:34:00,14.6,7.8,30.26,NNE,19,0.0,1.0,74,0.00,CLR,CLR,0.00,WeatherDisplay:10.34,2013-11-24 01:34:00,
2013-11-23 18:39:00,14.6,7.8,30.26,North,5,0.0,0.0,74,0.00,CLR,CLR,0.00,WeatherDisplay:10.34,2013-11-24 01:39:00,
2013-11-23 18:44:00,14.7,7.9,30.25,NNW,344,0.0,1.0,74,0.00,CLR,CLR,0.00,WeatherDisplay:10.34,2013-11-24 01:44:00,
2013-11-23 18:49:00,14.6,8.1,30.25,NNW,340,0.0,0.0,75,0.00,CLR,CLR,0.00,WeatherDisplay:10.34,2013-11-24 01:49:00,
2013-11-23 18:54:00,14.5,8.0,30.25,NNW,327,1.0,1.0,75,0.00,CLR,CLR,0.00,WeatherDisplay:10.34,2013-11-24 01:54:00,
2013-11-23 18:59:00,14.4,7.9,30.25,NNW,327,3.0,3.0,75,0.00,CLR,CLR,0.00,WeatherDisplay:10.34,2013-11-24 01:59:00,
2013-11-23 19:04:00,14.3,7.8,30.25,NNW,338,4.0,5.0,75,0.00,CLR,CLR,0.00,WeatherDisplay:10.34,2013-11-24 02:04:00,
2013-11-23 19:09:00,14.1,7.6,30.25,NNW,340,0.0,1.0,75,0.00,CLR,CLR,0.00,WeatherDisplay:10.34,2013-11-24 02:09:00,
2013-11-23 19:14:00,14.0,7.2,30.25,NNW,340,0.0,0.0,74,0.00,CLR,CLR,0.00,WeatherDisplay:10.34,2013-11-24 02:14:00,
2013-11-23 19:19:00,13.8,7.0,30.25,NNW,333,5.0,5.0,74,0.00,CLR,CLR,0.00,WeatherDisplay:10.34,2013-11-24 02:19:00,
2013-11-23 19:24:00,13.5,7.0,30.25,NNW,338,2.0,2.0,75,0.00,CLR,CLR,0.00,WeatherDisplay:10.34,2013-11-24 02:24:00,
2013-11-23 19:29:00,13.5,7.0,30.24,North,10,3.0,3.0,75,0.00,CLR,CLR,0.00,WeatherDisplay:10.34,2013-11-24 02:29:00,
2013-11-23 19:34:00,13.5,7.3,30.24,North,9,3.0,3.0,76,0.00,CLR,CLR,0.00,WeatherDisplay:10.34,2013-11-24 02:34:00,
2013-11-23 19:39:00,13.5,7.3,30.24,North,5,0.0,0.0,76,0.00,CLR,CLR,0.00,WeatherDisplay:10.34,2013-11-24 02:39:00,
2013-11-23 19:44:00,13.5,7.3,30.24,NNW,336,0.0,0.0,76,0.00,CLR,CLR,0.00,WeatherDisplay:10.34,2013-11-24 02:44:00,
2013-11-23 19:49:00,13.4,7.2,30.24,NNW,336,0.0,0.0,76,0.00,CLR,CLR,0.00,WeatherDisplay:10.34,2013-11-24 02:49:00,
2013-11-23 19:54:00,13.3,7.1,30.24,NNW,334,0.0,0.0,76,0.00,CLR,CLR,0.00,WeatherDisplay:10.34,2013-11-24 02:54:00,
2013-11-23 19:59:00,13.1,7.0,30.24,NNW,334,0.0,0.0,76,0.00,CLR,CLR,0.00,WeatherDisplay:10.34,2013-11-24 02:59:00,
2013-11-23 20:04:00,12.9,6.8,30.25,NNW,335,1.0,1.0,76,0.00,CLR,CLR,0.00,WeatherDisplay:10.34,2013-11-24 03:04:00,
2013-11-23 20:09:00,12.7,6.6,30.24,NW,317,0.0,0.0,76,0.00,CLR,CLR,0.00,WeatherDisplay:10.34,2013-11-24 03:09:00,
2013-11-23 20:14:00,12.6,6.5,30.24,NW,317,0.0,0.0,76,0.00,CLR,CLR,0.00,WeatherDisplay:10.34,2013-11-24 03:14:00,
2013-11-23 20:19:00,12.6,6.5,30.24,NW,317,0.0,0.0,76,0.00,CLR,CLR,0.00,WeatherDisplay:10.34,2013-11-24 03:19:00,
2013-11-23 20:24:00,12.3,6.2,30.24,NW,317,0.0,0.0,76,0.00,CLR,CLR,0.00,WeatherDisplay:10.34,2013-11-24 03:24:00,
2013-11-23 20:29:00,12.2,6.1,30.24,NW,317,0.0,0.0,76,0.00,CLR,CLR,0.00,WeatherDisplay:10.34,2013-11-24 03:29:00,
2013-11-23 20:34:00,12.0,5.9,30.24,NW,317,0.0,0.0,76,0.00,CLR,CLR,0.00,WeatherDisplay:10.34,2013-11-24 03:34:00,
2013-11-23 20:39:00,11.8,5.7,30.24,NW,317,0.0,0.0,76,0.00,CLR,CLR,0.00,WeatherDisplay:10.34,2013-11-24 03:39:00,
2013-11-23 20:44:00,11.6,5.5,30.23,NW,317,0.0,0.0,76,0.00,CLR,CLR,0.00,WeatherDisplay:10.34,2013-11-24 03:44:00,
2013-11-23 20:49:00,11.4,5.3,30.23,NW,317,0.0,0.0,76,0.00,CLR,CLR,0.00,WeatherDisplay:10.34,2013-11-24 03:49:00,
2013-11-23 20:54:00,11.3,5.2,30.22,NW,317,0.0,0.0,76,0.00,CLR,CLR,0.00,WeatherDisplay:10.34,2013-11-24 03:54:00,
2013-11-23 20:59:00,11.0,4.9,30.22,NW,317,0.0,0.0,76,0.00,CLR,CLR,0.00,WeatherDisplay:10.34,2013-11-24 03:59:00,
2013-11-23 21:04:00,10.8,5.0,30.22,NW,317,0.0,0.0,77,0.00,CLR,CLR,0.00,WeatherDisplay:10.34,2013-11-24 04:04:00,
2013-11-23 21:09:00,10.7,4.9,30.22,NW,317,0.0,0.0,77,0.00,CLR,CLR,0.00,WeatherDisplay:10.34,2013-11-24 04:09:00,
2013-11-23 21:14:00,10.6,5.1,30.21,NW,317,0.0,0.0,78,0.00,CLR,CLR,0.00,WeatherDisplay:10.34,2013-11-24 04:14:00,
2013-11-23 21:19:00,10.7,5.2,30.21,NW,317,0.0,0.0,78,0.00,CLR,CLR,0.00,WeatherDisplay:10.34,2013-11-24 04:19:00,
2013-11-23 21:24:00,10.8,5.6,30.21,NW,317,0.0,0.0,79,0.00,CLR,CLR,0.00,WeatherDisplay:10.34,2013-11-24 04:24:00,
2013-11-23 21:29:00,10.7,5.5,30.21,NW,325,2.0,2.0,79,0.00,CLR,CLR,0.00,WeatherDisplay:10.34,2013-11-24 04:29:00,
2013-11-23 21:34:00,10.8,5.6,30.21,NW,322,2.0,3.0,79,0.00,CLR,CLR,0.00,WeatherDisplay:10.34,2013-11-24 04:34:00,
2013-11-23 21:39:00,10.9,5.7,30.21,NNW,337,5.0,7.0,79,0.00,CLR,CLR,0.00,WeatherDisplay:10.34,2013-11-24 04:39:00,
2013-11-23 21:44:00,10.9,5.7,30.21,NNW,333,6.0,6.0,79,0.00,CLR,CLR,0.00,WeatherDisplay:10.34,2013-11-24 04:44:00,
2013-11-23 21:49:00,11.1,5.6,30.21,NNW,333,5.0,5.0,78,0.00,CLR,CLR,0.00,WeatherDisplay:10.34,2013-11-24 04:49:00,
2013-11-23 21:54:00,11.1,5.9,30.21,NNW,333,5.0,5.0,79,0.00,CLR,CLR,0.00,WeatherDisplay:10.34,2013-11-24 04:54:00,
2013-11-23 21:59:00,11.4,6.2,30.21,North,350,4.0,4.0,79,0.00,CLR,CLR,0.00,WeatherDisplay:10.34,2013-11-24 04:59:00,
2013-11-23 22:01:00,11.4,6.2,30.21,NNW,346,2.0,2.0,79,0.00,CLR,CLR,0.00,WeatherDisplay:10.34,2013-11-24 05:01:00,
2013-11-23 22:02:00,11.5,6.2,30.21,NNW,346,3.0,3.0,79,0.00,CLR,CLR,0.00,WeatherDisplay:10.34,2013-11-24 05:02:00,
2013-11-23 22:03:00,11.6,6.3,30.21,NNW,346,3.0,3.0,79,0.00,CLR,CLR,0.00,WeatherDisplay:10.34,2013-11-24 05:03:00,
2013-11-23 22:04:00,11.6,6.3,30.21,NNW,346,3.0,3.0,79,0.00,CLR,CLR,0.00,WeatherDisplay:10.34,2013-11-24 05:04:00,
2013-11-23 22:09:00,11.8,6.5,30.21,NNW,346,1.0,2.0,79,0.00,CLR,CLR,0.00,WeatherDisplay:10.34,2013-11-24 05:09:00,
2013-11-23 22:14:00,11.8,6.5,30.20,NNW,346,0.0,1.0,79,0.00,CLR,CLR,0.00,WeatherDisplay:10.34,2013-11-24 05:14:00,
2013-11-23 22:19:00,11.8,6.5,30.20,NNW,346,2.0,2.0,79,0.00,CLR,CLR,0.00,WeatherDisplay:10.34,2013-11-24 05:19:00,
2013-11-23 22:24:00,11.8,6.5,30.20,NNW,341,5.0,5.0,79,0.00,CLR,CLR,0.00,WeatherDisplay:10.34,2013-11-24 05:24:00,
2013-11-23 22:29:00,11.9,6.6,30.20,NNW,337,3.0,3.0,79,0.00,CLR,CLR,0.00,WeatherDisplay:10.34,2013-11-24 05:29:00,
2013-11-23 22:34:00,11.9,6.6,30.20,NNW,337,0.0,0.0,79,0.00,CLR,CLR,0.00,WeatherDisplay:10.34,2013-11-24 05:34:00,
2013-11-23 22:39:00,11.8,6.5,30.19,NNW,337,0.0,0.0,79,0.00,CLR,CLR,0.00,WeatherDisplay:10.34,2013-11-24 05:39:00,
2013-11-23 22:44:00,11.8,6.3,30.19,NNW,337,0.0,0.0,78,0.00,CLR,CLR,0.00,WeatherDisplay:10.34,2013-11-24 05:44:00,
2013-11-23 22:49:00,11.7,6.2,30.19,NNW,337,0.0,0.0,78,0.00,CLR,CLR,0.00,WeatherDisplay:10.34,2013-11-24 05:49:00,
2013-11-23 22:54:00,11.6,6.1,30.19,NNW,337,0.0,0.0,78,0.00,CLR,CLR,0.00,WeatherDisplay:10.34,2013-11-24 05:54:00,
2013-11-23 22:57:00,11.6,6.1,30.19,NNW,337,0.0,0.0,78,0.00,CLR,CLR,0.00,WeatherDisplay:10.34,2013-11-24 05:57:00,
2013-11-23 23:02:00,11.4,5.9,30.19,NNW,337,0.0,0.0,78,0.00,CLR,CLR,0.00,WeatherDisplay:10.34,2013-11-24 06:02:00,
2013-11-23 23:07:00,11.2,5.4,30.19,NNW,337,0.0,1.0,77,0.00,CLR,CLR,0.00,WeatherDisplay:10.34,2013-11-24 06:07:00,
2013-11-23 23:12:00,11.0,5.5,30.19,NNW,337,0.0,0.0,78,0.00,CLR,CLR,0.00,WeatherDisplay:10.34,2013-11-24 06:12:00,
2013-11-23 23:17:00,10.9,5.4,30.19,NNW,337,0.0,0.0,78,0.00,CLR,CLR,0.00,WeatherDisplay:10.34,2013-11-24 06:17:00,
2013-11-23 23:22:00,10.8,5.3,30.18,WNW,298,0.0,0.0,78,0.00,CLR,CLR,0.00,WeatherDisplay:10.34,2013-11-24 06:22:00,
2013-11-23 23:27:00,10.3,4.5,30.18,WSW,245,1.0,1.0,77,0.00,CLR,CLR,0.00,WeatherDisplay:10.34,2013-11-24 06:27:00,
2013-11-23 23:32:00,9.9,4.1,30.18,WSW,246,0.0,0.0,77,0.00,CLR,CLR,0.00,WeatherDisplay:10.34,2013-11-24 06:32:00,
2013-11-23 23:37:00,9.8,4.3,30.17,WSW,246,0.0,0.0,78,0.00,CLR,CLR,0.00,WeatherDisplay:10.34,2013-11-24 06:37:00,
2013-11-23 23:42:00,9.6,4.1,30.17,WSW,245,0.0,0.0,78,0.00,CLR,CLR,0.00,WeatherDisplay:10.34,2013-11-24 06:42:00,
2013-11-23 23:47:00,9.3,3.8,30.17,WSW,245,0.0,0.0,78,0.00,CLR,CLR,0.00,WeatherDisplay:10.34,2013-11-24 06:47:00,
2013-11-23 23:52:00,9.1,3.4,30.17,WSW,246,0.0,0.0,77,0.00,CLR,CLR,0.00,WeatherDisplay:10.34,2013-11-24 06:52:00,
2013-11-23 23:57:00,8.8,3.1,30.17,WSW,246,0.0,0.0,77,0.00,CLR,CLR,0.00,WeatherDisplay:10.34,2013-11-24 06:57:00,